Temp
14 14 14 14 14 14 14 14 14 14 14 14 14 14 14 14 14 14 14 14 14 14 14 14 14 14 14 14 14 14 14 14 13 13 12 12 11 11 11 10 10 9 9 9 9 9 9 9 9 9 9 9 10 10 10 10 10 10 10 10 10 10 10 10 10 10 10 10 9
14 14 14 14 14 14 14 14 14 14 14 14 14 14 14 14 14 14 14 14 14 14 14 14 14 14 14 14 14 14 14 14 13 13 13 12 12 11 11 10 10 9 9 9 9 9 9 9 9 9 9 9 9 9 10 10 10 10 10 10 10 10 10 10 10 10 10 10 10
14 14 14 14 14 14 14 14 14 14 14 14 14 14 14 14 14 14 14 14 14 14 14 14 14 14 14 14 14 14 14 13 13 13 12 12 12 11 10 10 10 9 9 9 9 9 9 9 9 9 9 9 9 9 10 10 10 10 10 10 10 10 10 10 10 10 10 10 10
14 14 14 14 14 14 15 15 14 14 14 14 14 14 14 14 14 14 14 14 14 14 14 14 14 14 14 14 14 14 13 13 13 13 12 12 12 11 10 10 10 9 9 9 9 9 9 9 9 10 10 10 9 9 9 10 10 10 10 10 10 10 10 10 10 10 10 10 10
14 14 14 15 15 15 15 15 14 14 14 14 14 13 14 14 14 14 14 14 14 14 14 14 14 14 14 14 14 13 13 13 13 12 12 12 11 11 10 10 10 10 9 9 9 9 9 9 9 9 9 9 9 9 9 9 10 10 10 10 10 10 10 10 10 10 10 10 10
14 14 15 15 15 15 15 14 14 14 14 14 14 14 14 14 14 14 14 14 14 14 14 14 14 14 14 14 14 13 13 13 12 12 12 12 11 11 10 10 10 10 9 9 9 9 9 9 9 9 9 9 9 10 10 10 10 10 10 10 10 10 10 10 10 10 10 10 9
15 15 15 15 15 14 14 14 14 14 14 14 14 14 14 14 14 14 14 14 14 14 14 14 14 14 14 14 14 13 13 13 12 12 12 11 11 11 10 10 10 10 10 9 9 9 9 9 9 9 9 10 10 10 10 10 10 10 10 10 10 10 10 10 10 9 9 9 9
15 15 15 15 14 14 14 14 14 14 14 14 14 14 14 14 14 14 14 14 14 14 14 14 14 14 14 14 14 13 13 13 12 12 12 11 11 11 10 10 10 10 10 9 9 9 9 9 9 9 10 10 10 10 10 10 10 10 10 10 10 10 10 10 9 9 9 9 9
14 15 15 14 14 14 14 14 14 14 14 14 14 14 14 14 14 14 14 14 14 14 14 14 14 14 14 14 13 13 13 13 12 12 12 11 11 11 10 10 10 10 9 9 9 9 9 9 10 10 10 10 10 10 10 10 10 10 10 11 11 10 10 10 9 9 9 9 9
14 14 14 14 14 14 14 14 14 14 14 13 14 14 13 14 14 14 14 14 14 14 14 14 14 14 14 14 13 13 13 13 12 12 12 11 11 11 10 10 10 10 9 9 9 9 9 10 10 10 10 10 10 10 10 10 10 10 11 11 11 10 10 10 9 9 9 9 9
15 15 14 14 14 14 14 13 13 13 13 13 13 13 13 13 14 14 14 14 14 14 14 14 14 14 14 13 13 13 13 12 12 12 11 11 11 11 10 10 10 10 9 9 9 9 9 10 10 10 10 10 10 10 10 10 10 10 10 10 10 10 10 10 10 9 9 9 9
15 14 14 14 14 14 14 13 13 13 13 13 13 13 13 13 14 14 14 14 14 14 14 14 14 14 14 13 13 13 13 12 12 12 11 11 11 10 10 10 10 9 9 9 9 9 9 10 10 10 10 10 10 10 10 10 10 10 10 10 10 9 9 9 9 9 9 9 9
14 14 14 14 14 14 13 13 13 13 13 13 13 13 13 13 14 14 14 14 14 14 14 14 14 14 13 13 13 13 12 12 12 12 11 11 11 10 10 10 10 9 9 9 9 9 9 10 10 10 10 10 10 10 10 10 10 10 10 10 9 9 9 9 9 9 9 9 9
14 14 14 14 14 13 13 13 13 13 13 13 13 13 13 13 14 14 14 14 14 13 13 13 13 13 13 13 13 13 12 12 12 11 11 11 11 11 10 10 10 9 9 9 9 9 10 10 10 10 10 10 10 10 10 10 10 10 9 9 9 9 9 9 9 9 9 8 8
14 14 14 14 13 13 13 13 13 13 13 13 13 13 13 13 14 14 14 14 13 13 13 13 13 13 13 13 13 12 12 12 12 11 11 11 11 11 11 10 10 9 9 9 9 10 10 10 10 10 10 10 10 10 10 10 10 9 9 9 9 9 9 9 9 8 8 8 8
14 14 14 13 13 13 13 13 13 13 13 13 13 13 13 13 14 14 14 13 13 13 13 13 13 13 13 13 13 12 12 12 11 11 11 11 11 11 11 10 10 9 9 9 9 10 10 10 10 10 10 10 10 10 10 9 9 9 9 9 9 9 9 9 8 8 8 8 8
14 14 14 13 13 14 14 14 13 13 13 13 13 13 13 13 14 14 14 13 13 13 13 13 13 13 13 13 12 12 12 12 11 11 11 11 11 11 10 10 10 9 9 9 9 10 10 10 10 10 10 10 9 9 9 9 9 9 9 9 9 9 8 8 8 8 8 8 8
14 14 14 14 14 14 14 14 14 14 13 13 13 13 13 13 14 14 13 13 13 13 13 13 13 13 13 12 12 12 12 12 11 11 11 11 11 11 10 10 9 9 9 9 9 10 10 10 10 10 9 9 9 9 9 9 9 9 9 9 9 8 8 8 8 8 8 8 8
14 14 14 14 14 14 14 14 14 14 14 13 13 13 13 13 14 13 13 13 13 13 13 13 13 13 12 12 12 12 12 12 11 11 11 11 11 10 10 10 10 9 9 9 9 10 10 10 10 9 9 9 9 9 9 9 9 9 9 9 8 8 8 8 8 8 8 8 8
14 14 14 14 14 14 14 14 14 14 13 13 13 13 13 13 13 13 13 13 13 13 13 13 13 13 12 12 12 12 12 11 11 11 11 11 10 10 10 10 10 9 9 9 9 10 10 10 9 9 9 9 9 9 9 9 9 9 9 8 8 8 8 8 8 8 8 8 8
14 14 14 14 14 14 14 13 13 13 13 13 13 13 13 13 13 13 13 13 13 13 13 13 13 12 12 12 12 12 11 11 11 11 11 10 10 10 10 10 10 9 9 9 9 9 9 9 9 9 9 9 9 9 9 9 9 9 8 8 8 8 8 8 8 8 8 8 8
14 14 14 14 14 14 13 13 13 13 13 13 13 13 13 13 13 13 13 13 13 13 13 13 12 12 12 12 12 11 11 11 11 11 11 10 10 10 10 10 9 9 9 9 9 9 9 9 9 9 9 9 9 9 9 9 9 8 8 8 8 8 8 8 8 8 8 8 7
14 14 14 13 13 13 13 13 13 13 13 13 13 13 13 13 13 13 12 12 12 12 12 12 12 12 12 12 11 11 11 11 11 11 10 10 10 10 10 10 9 9 10 10 9 9 9 9 9 10 10 9 9 9 9 9 8 8 8 8 8 8 8 8 8 8 8 7 7
14 14 14 13 13 13 13 13 13 13 13 12 12 13 13 13 12 12 12 12 12 12 12 12 12 12 12 11 11 11 11 11 11 11 10 10 10 10 10 10 9 10 10 10 10 9 9 9 10 10 10 9 9 9 8 8 8 8 8 8 8 8 8 8 8 8 7 7 7
13 13 13 13 13 13 13 13 13 13 12 12 13 13 13 12 12 12 12 12 12 12 12 12 12 12 11 11 11 11 11 11 11 11 11 10 10 10 10 10 10 10 10 10 9 9 9 9 9 9 9 9 9 9 8 8 8 8 8 8 8 8 8 8 8 8 7 7 7
13 13 13 13 13 13 13 13 13 13 13 12 12 12 12 12 12 12 12 12 12 12 12 12 12 11 11 11 11 11 11 11 11 11 11 11 10 10 10 10 10 10 10 9 9 9 9 9 9 9 9 9 9 9 8 8 8 8 8 8 8 8 8 8 8 7 7 7 7
13 13 13 13 13 13 13 13 13 13 13 13 13 12 12 12 12 12 12 12 12 12 12 12 11 11 11 11 11 11 10 10 10 10 11 10 10 10 10 10 10 9 9 9 9 9 9 9 9 9 9 9 9 9 8 8 8 8 8 8 8 8 8 7 7 7 7 6 6
13 13 13 13 13 13 13 13 13 13 13 13 13 12 12 12 12 12 12 12 12 12 12 11 11 11 11 11 11 10 10 10 10 10 10 10 10 10 10 10 9 9 9 9 9 9 9 8 8 9 9 9 9 8 8 8 8 8 8 8 8 7 7 7 7 7 6 6 6
13 13 13 13 13 13 13 13 13 13 13 13 13 12 12 12 12 12 12 12 12 12 12 11 11 11 11 11 10 10 10 10 10 10 10 10 10 10 10 9 9 9 9 9 9 8 8 8 8 8 8 8 8 8 8 8 8 8 8 7 7 7 7 7 7 6 6 6 5
13 13 13 13 13 13 13 13 13 13 13 12 12 12 12 12 12 12 12 12 12 12 12 11 11 11 11 11 10 10 10 10 10 10 10 10 10 9 9 9 9 9 9 8 8 8 8 8 8 8 8 8 8 8 8 8 8 7 7 7 7 7 7 7 6 6 6 5 5
13 13 13 13 13 13 13 13 12 12 12 12 12 12 12 12 12 12 12 12 12 12 12 11 11 11 11 11 10 10 10 10 10 10 10 10 9 10 10 9 9 9 8 8 8 8 8 8 8 8 8 8 8 8 8 8 7 7 7 7 7 7 7 6 6 6 5 5 5
13 13 13 13 13 13 13 12 12 12 12 12 12 12 12 12 12 12 12 12 12 12 11 11 11 11 11 10 10 10 10 10 10 10 10 10 10 10 9 9 9 8 8 8 8 8 8 8 8 9 8 8 8 8 8 7 7 7 7 7 7 6 6 6 6 6 5 5 5
13 13 13 13 13 13 12 12 12 12 12 12 12 12 12 12 12 12 12 12 12 12 11 11 11 11 11 11 10 10 10 10 10 10 10 10 10 9 9 9 8 8 8 8 8 8 8 8 9 9 8 8 8 8 7 7 7 7 7 7 6 6 6 6 6 6 6 5 5
13 13 13 13 13 13 12 12 12 12 12 12 12 12 12 12 12 12 12 12 11 11 11 11 11 11 11 11 10 10 10 10 10 10 10 10 10 9 9 8 8 8 8 8 8 8 8 8 8 8 8 8 8 7 7 7 7 7 7 7 6 6 6 6 6 6 6 5 5
13 13 13 13 13 13 13 12 12 12 12 12 12 12 12 12 12 12 12 11 11 11 11 11 11 11 11 10 10 10 10 10 10 10 10 10 9 9 9 8 8 8 8 8 8 8 8 8 8 8 8 8 7 7 7 7 7 7 7 6 6 6 6 6 6 6 5 5 5
13 13 13 13 13 13 13 12 12 12 12 12 12 12 11 11 12 12 12 11 11 11 11 11 11 11 11 10 10 10 10 10 10 10 9 9 9 9 9 8 8 8 8 8 8 8 8 8 8 8 7 7 7 7 7 7 7 6 6 6 6 6 6 6 6 5 5 5 5
13 13 13 13 13 13 13 12 12 12 12 12 12 12 11 11 11 11 11 11 11 11 11 11 11 11 10 10 10 10 10 10 10 9 9 9 9 9 8 8 8 8 7 7 8 8 8 8 8 7 7 7 7 7 7 7 7 6 6 6 6 6 6 6 5 5 5 5 5
13 13 13 13 13 13 13 12 12 12 12 12 11 11 11 11 11 11 11 11 11 11 11 11 11 11 10 10 10 10 10 10 9 9 9 9 9 9 8 8 8 8 7 7 8 8 8 8 7 7 7 7 7 7 7 7 7 6 6 6 6 6 6 5 5 5 5 5 5
13 13 13 13 13 13 12 12 12 12 12 12 11 11 11 11 11 11 11 11 11 11 11 11 11 10 10 10 10 10 9 9 9 9 9 9 9 9 9 8 8 8 8 8 8 8 7 7 7 7 7 7 7 7 7 7 7 7 6 6 6 6 5 5 5 5 5 5 4
12 13 13 13 13 13 12 12 12 12 12 12 11 11 11 11 11 11 11 11 11 11 11 11 10 10 10 10 10 10 9 9 9 9 9 8 8 8 8 9 8 8 8 8 8 7 7 7 7 7 6 6 6 6 6 7 7 6 6 6 6 6 5 5 5 5 5 4 4
12 12 12 12 12 12 12 12 12 12 12 12 11 11 11 11 11 11 11 11 11 11 11 11 10 10 10 10 10 9 9 9 8 8 8 8 8 8 8 9 9 8 8 8 7 7 6 6 6 6 6 6 6 6 6 6 6 6 6 6 6 5 5 5 5 5 4 4 4
Height
1450 1451 1452 1454 1455 1456 1457 1458 1460 1461 1462 1463 1464 1465 1466 1468 1469 1470 1472 1473 1475 1476 1477 1479 1480 1481 1482 1483 1484 1485 1486 1486 1487 1488 1489 1490 1490 1491 1492 1493 1493 1494 1495 1495 1495 1496 1498 1499 1500 1501 1501 1502 1503 1503 1504 1505 1506 1507 1508 1508 1509 1509 1510 1510 1510 1510 1511 1511 1511
1449 1450 1451 1452 1454 1455 1456 1457 1458 1460 1460 1461 1463 1464 1465 1466 1468 1470 1471 1472 1474 1475 1476 1478 1479 1480 1481 1483 1484 1484 1485 1486 1486 1487 1488 1489 1490 1490 1491 1492 1492 1493 1494 1494 1495 1495 1497 1498 1499 1500 1500 1501 1501 1502 1503 1504 1505 1505 1506 1507 1508 1508 1508 1509 1509 1509 1510 1510 1510
1447 1448 1450 1451 1452 1453 1455 1455 1457 1458 1459 1460 1461 1463 1464 1465 1467 1468 1470 1471 1473 1474 1475 1477 1478 1480 1481 1482 1483 1484 1485 1485 1486 1486 1487 1488 1488 1489 1490 1491 1491 1492 1493 1493 1494 1495 1495 1497 1497 1498 1499 1500 1500 1501 1502 1502 1503 1504 1505 1506 1506 1507 1507 1507 1508 1508 1509 1509 1509
1446 1447 1448 1449 1450 1451 1453 1454 1455 1456 1458 1459 1460 1462 1463 1464 1466 1467 1469 1470 1472 1473 1474 1476 1477 1479 1480 1481 1482 1483 1484 1485 1485 1486 1486 1487 1487 1488 1489 1490 1490 1491 1492 1492 1493 1494 1495 1495 1496 1497 1498 1498 1499 1500 1500 1501 1502 1503 1504 1505 1505 1506 1506 1506 1506 1507 1507 1508 1508
1444 1445 1446 1447 1449 1450 1451 1453 1454 1455 1456 1458 1459 1460 1462 1463 1465 1466 1468 1469 1470 1472 1473 1475 1476 1478 1479 1480 1482 1483 1483 1484 1485 1485 1485 1486 1486 1487 1488 1489 1490 1490 1491 1492 1492 1493 1494 1494 1495 1496 1496 1497 1498 1499 1500 1500 1501 1502 1503 1504 1504 1505 1505 1505 1505 1506 1506 1507 1507
1442 1444 1445 1446 1448 1449 1450 1452 1453 1454 1455 1457 1458 1460 1461 1462 1464 1465 1467 1468 1469 1471 1472 1474 1475 1477 1479 1480 1481 1482 1483 1483 1484 1484 1485 1485 1486 1486 1487 1488 1489 1490 1490 1491 1491 1492 1493 1494 1494 1495 1495 1496 1497 1498 1499 1500 1500 1501 1502 1503 1503 1504 1504 1505 1505 1505 1505 1506 1506
1440 1442 1444 1445 1446 1448 1450 1451 1452 1453 1455 1456 1457 1458 1460 1461 1463 1464 1466 1467 1469 1470 1471 1473 1474 1476 1477 1479 1480 1481 1482 1482 1483 1484 1484 1485 1485 1486 1486 1487 1488 1489 1490 1490 1491 1492 1492 1493 1494 1494 1495 1496 1496 1497 1498 1499 1500 1500 1501 1501 1502 1503 1503 1503 1504 1505 1505 1505 1505
1439 1441 1442 1444 1445 1447 1448 1450 1451 1452 1453 1454 1455 1457 1458 1460 1461 1463 1465 1466 1468 1469 1470 1472 1473 1475 1477 1478 1479 1480 1481 1481 1482 1483 1483 1484 1485 1485 1486 1487 1487 1488 1489 1490 1490 1491 1492 1492 1493 1494 1494 1495 1496 1496 1497 1498 1499 1500 1500 1500 1501 1502 1502 1502 1503 1503 1504 1504 1505
1438 1440 1441 1443 1444 1445 1447 1448 1450 1451 1452 1453 1454 1456 1457 1459 1460 1462 1464 1465 1466 1468 1470 1471 1473 1474 1476 1477 1478 1479 1480 1480 1481 1482 1482 1483 1484 1485 1485 1486 1487 1487 1488 1489 1490 1490 1491 1491 1492 1493 1493 1494 1495 1495 1496 1497 1498 1499 1499 1500 1500 1501 1501 1502 1502 1502 1503 1503 1504
1436 1438 1440 1441 1443 1444 1446 1447 1448 1450 1450 1452 1453 1455 1456 1458 1460 1461 1463 1464 1465 1467 1469 1470 1472 1474 1475 1476 1477 1478 1479 1480 1480 1481 1482 1482 1483 1484 1485 1485 1486 1486 1487 1488 1489 1489 1490 1490 1491 1492 1493 1493 1493 1494 1495 1496 1497 1498 1498 1499 1500 1500 1500 1501 1501 1502 1502 1502 1503
1434 1436 1438 1440 1441 1443 1445 1446 1447 1448 1450 1451 1452 1454 1455 1457 1458 1460 1462 1463 1465 1466 1468 1469 1471 1473 1474 1475 1476 1477 1478 1479 1480 1480 1481 1482 1482 1483 1484 1485 1485 1486 1486 1487 1488 1488 1489 1489 1490 1491 1492 1492 1492 1493 1494 1495 1496 1497 1497 1498 1499 1499 1500 1500 1501 1501 1501 1501 1502
1433 1435 1437 1439 1440 1442 1443 1445 1446 1447 1449 1450 1451 1452 1454 1455 1457 1459 1461 1462 1463 1465 1467 1469 1470 1472 1473 1474 1475 1476 1477 1478 1479 1479 1480 1481 1482 1482 1483 1484 1484 1485 1486 1486 1487 1488 1488 1489 1490 1490 1491 1491 1492 1492 1493 1495 1495 1496 1496 1497 1498 1499 1499 1500 1500 1500 1500 1501 1501
1432 1434 1436 1437 1439 1441 1442 1443 1445 1446 1447 1448 1450 1451 1453 1455 1456 1458 1460 1461 1462 1464 1466 1468 1470 1471 1472 1474 1475 1475 1476 1477 1478 1479 1479 1480 1481 1482 1482 1483 1484 1484 1485 1486 1486 1487 1488 1488 1489 1490 1490 1491 1492 1492 1493 1494 1494 1495 1496 1496 1497 1498 1498 1499 1499 1499 1500 1500 1500
1431 1433 1435 1436 1438 1439 1441 1442 1443 1445 1446 1447 1448 1450 1452 1454 1455 1457 1458 1460 1461 1463 1465 1467 1469 1470 1471 1473 1474 1475 1475 1476 1477 1478 1478 1479 1480 1481 1481 1482 1483 1484 1484 1485 1486 1486 1487 1488 1488 1489 1490 1490 1491 1492 1493 1493 1494 1494 1495 1495 1496 1497 1497 1498 1498 1499 1499 1499 1500
1430 1431 1433 1435 1436 1438 1439 1441 1442 1443 1445 1446 1447 1449 1451 1452 1454 1456 1457 1459 1460 1462 1464 1466 1468 1469 1470 1471 1473 1473 1474 1475 1476 1477 1477 1478 1479 1480 1480 1481 1482 1483 1484 1485 1485 1486 1486 1487 1487 1488 1489 1489 1490 1491 1492 1492 1493 1494 1494 1495 1495 1496 1497 1497 1498 1498 1499 1499 1499
1428 1430 1431 1433 1435 1436 1438 1439 1441 1442 1443 1444 1446 1448 1450 1451 1453 1454 1456 1457 1459 1461 1463 1465 1466 1468 1469 1470 1471 1472 1473 1474 1475 1476 1477 1477 1478 1479 1480 1480 1481 1482 1483 1484 1484 1485 1485 1486 1486 1487 1488 1489 1490 1490 1491 1492 1492 1493 1494 1494 1495 1495 1496 1497 1497 1498 1498 1498 1499
1426 1428 1430 1431 1433 1435 1436 1438 1439 1440 1442 1443 1445 1447 1448 1450 1451 1453 1455 1456 1458 1460 1462 1464 1465 1467 1468 1469 1470 1471 1472 1473 1474 1475 1476 1476 1477 1478 1479 1480 1480 1481 1482 1483 1483 1484 1485 1485 1486 1487 1487 1488 1489 1490 1490 1491 1492 1492 1493 1494 1495 1495 1496 1496 1497 1497 1497 1497 1498
1424 1426 1428 1430 1431 1433 1435 1436 1438 1439 1440 1442 1444 1445 1447 1449 1450 1451 1453 1455 1457 1459 1461 1463 1464 1465 1467 1468 1469 1470 1471 1472 1473 1474 1475 1475 1476 1477 1478 1479 1480 1480 1481 1482 1482 1483 1484 1485 1485 1486 1487 1487 1488 1489 1490 1490 1491 1492 1493 1493 1494 1495 1495 1496 1496 1496 1496 1497 1497
1422 1424 1426 1428 1430 1431 1433 1435 1436 1437 1439 1441 1443 1444 1446 1447 1449 1450 1452 1454 1456 1458 1460 1462 1463 1465 1466 1467 1468 1469 1470 1471 1472 1473 1474 1475 1475 1476 1477 1478 1479 1479 1480 1481 1482 1483 1484 1484 1485 1485 1486 1487 1488 1489 1489 1490 1491 1491 1492 1493 1494 1495 1495 1495 1495 1495 1496 1496 1496
1420 1422 1424 1426 1428 1430 1431 1433 1435 1436 1438 1440 1442 1443 1445 1446 1448 1449 1451 1453 1455 1457 1459 1460 1462 1463 1465 1466 1467 1468 1469 1470 1471 1472 1473 1474 1475 1475 1476 1477 1478 1479 1480 1480 1481 1482 1483 1484 1485 1485 1486 1487 1488 1488 1489 1490 1490 1491 1492 1493 1493 1494 1494 1495 1495 1495 1495 1495 1496
1418 1420 1422 1424 1426 1428 1430 1432 1433 1435 1438 1440 1441 1442 1444 1445 1447 1448 1450 1452 1455 1456 1458 1460 1461 1462 1464 1465 1466 1467 1468 1469 1470 1471 1472 1473 1473 1474 1475 1476 1477 1478 1479 1480 1480 1481 1482 1483 1484 1485 1486 1486 1487 1488 1489 1489 1490 1491 1491 1492 1493 1493 1494 1494 1494 1495 1495 1495 1495
1416 1419 1421 1423 1425 1427 1429 1431 1433 1435 1437 1439 1440 1441 1443 1444 1446 1448 1450 1452 1454 1455 1457 1459 1460 1461 1463 1464 1465 1466 1467 1468 1469 1470 1471 1471 1472 1473 1474 1475 1476 1477 1478 1479 1480 1481 1482 1483 1484 1485 1485 1486 1486 1487 1488 1489 1490 1490 1491 1492 1492 1493 1493 1493 1494 1494 1494 1495 1495
1415 1418 1420 1422 1424 1426 1428 1430 1432 1434 1436 1438 1439 1440 1441 1443 1445 1447 1449 1451 1453 1455 1456 1458 1459 1461 1462 1463 1464 1465 1466 1467 1468 1469 1470 1470 1471 1472 1474 1475 1475 1476 1478 1478 1479 1480 1481 1482 1483 1484 1485 1485 1486 1487 1487 1488 1489 1490 1490 1491 1492 1492 1493 1493 1493 1494 1494 1494 1494
1414 1416 1419 1421 1423 1425 1427 1430 1431 1433 1435 1436 1437 1439 1440 1442 1444 1446 1448 1450 1452 1454 1455 1457 1458 1460 1461 1462 1463 1464 1465 1466 1467 1468 1469 1470 1471 1472 1473 1474 1475 1476 1477 1478 1479 1480 1480 1481 1482 1483 1484 1485 1485 1486 1487 1488 1489 1490 1490 1491 1491 1492 1492 1492 1492 1493 1493 1494 1494
1413 1415 1418 1420 1422 1424 1426 1428 1430 1431 1433 1435 1436 1438 1439 1441 1443 1445 1447 1449 1451 1453 1454 1456 1457 1459 1460 1461 1462 1463 1464 1465 1466 1467 1468 1469 1470 1471 1472 1473 1475 1475 1476 1478 1479 1479 1480 1481 1482 1483 1484 1485 1485 1486 1487 1488 1488 1489 1490 1490 1490 1491 1491 1491 1492 1492 1493 1493 1493
1411 1414 1416 1419 1420 1422 1424 1426 1428 1430 1431 1433 1435 1436 1438 1440 1442 1444 1446 1448 1450 1451 1453 1455 1456 1457 1459 1460 1461 1462 1463 1465 1465 1466 1467 1468 1470 1471 1472 1473 1474 1475 1476 1477 1478 1479 1480 1480 1481 1482 1483 1484 1485 1486 1486 1487 1488 1489 1489 1490 1490 1490 1490 1491 1491 1492 1492 1493 1493
1410 1413 1415 1417 1419 1420 1422 1424 1426 1428 1430 1431 1433 1435 1437 1439 1441 1443 1445 1447 1449 1450 1452 1454 1455 1456 1458 1459 1460 1461 1462 1464 1465 1466 1467 1468 1469 1470 1471 1472 1473 1475 1475 1477 1478 1479 1480 1480 1481 1482 1483 1484 1485 1485 1486 1487 1488 1488 1489 1489 1489 1490 1490 1490 1491 1491 1492 1492 1493
1409 1411 1413 1415 1417 1419 1421 1423 1425 1426 1428 1430 1432 1434 1435 1438 1440 1442 1444 1445 1447 1449 1450 1452 1454 1455 1457 1458 1459 1460 1462 1463 1464 1465 1467 1468 1469 1470 1471 1472 1473 1474 1475 1476 1477 1478 1479 1480 1481 1482 1483 1484 1485 1485 1486 1487 1487 1488 1488 1488 1489 1489 1490 1490 1491 1491 1492 1492 1492
1407 1409 1412 1414 1416 1418 1420 1421 1423 1425 1426 1428 1430 1432 1434 1436 1439 1440 1442 1444 1446 1448 1449 1451 1453 1454 1456 1457 1458 1460 1461 1463 1464 1465 1466 1467 1469 1470 1471 1472 1473 1474 1475 1476 1477 1478 1479 1480 1481 1482 1483 1483 1484 1485 1486 1486 1487 1487 1488 1488 1488 1489 1489 1490 1490 1491 1492 1492 1492
1405 1408 1410 1412 1414 1416 1418 1420 1421 1423 1425 1427 1429 1431 1433 1435 1437 1439 1441 1443 1445 1446 1448 1450 1451 1453 1455 1456 1458 1459 1460 1462 1463 1465 1465 1467 1468 1469 1470 1472 1473 1473 1474 1475 1476 1477 1478 1479 1480 1481 1482 1483 1484 1485 1485 1486 1486 1487 1487 1488 1488 1489 1489 1490 1490 1491 1491 1491 1492
1404 1406 1409 1410 1413 1415 1416 1418 1420 1422 1424 1426 1428 1430 1432 1434 1436 1438 1440 1442 1444 1445 1447 1449 1450 1452 1454 1455 1457 1459 1460 1461 1463 1464 1465 1467 1468 1469 1470 1471 1472 1473 1474 1475 1476 1477 1478 1479 1480 1481 1482 1483 1484 1484 1485 1485 1486 1486 1487 1487 1488 1488 1489 1490 1490 1490 1491 1491 1491
1403 1405 1407 1409 1411 1413 1415 1417 1419 1421 1423 1425 1427 1429 1431 1433 1435 1437 1439 1441 1443 1445 1446 1448 1450 1451 1453 1455 1456 1458 1460 1461 1462 1464 1465 1466 1468 1469 1470 1470 1471 1472 1473 1475 1476 1477 1478 1479 1480 1481 1482 1482 1483 1484 1484 1485 1485 1486 1486 1487 1488 1488 1489 1490 1490 1490 1491 1491 1491
1402 1404 1406 1408 1410 1412 1414 1416 1418 1420 1422 1424 1426 1429 1430 1433 1435 1437 1439 1440 1442 1444 1445 1447 1449 1450 1452 1454 1456 1457 1459 1460 1462 1463 1465 1466 1467 1468 1469 1470 1471 1472 1473 1474 1475 1476 1477 1479 1480 1480 1481 1482 1483 1483 1484 1485 1485 1486 1486 1487 1487 1488 1489 1489 1490 1490 1490 1491 1491
1400 1402 1405 1407 1409 1411 1413 1415 1417 1419 1421 1424 1426 1428 1430 1432 1434 1435 1437 1439 1441 1443 1445 1446 1448 1450 1452 1454 1455 1457 1458 1460 1461 1463 1464 1465 1466 1467 1468 1470 1471 1472 1473 1474 1475 1476 1477 1478 1480 1480 1481 1482 1482 1483 1484 1484 1485 1485 1486 1486 1487 1488 1488 1489 1490 1490 1490 1491 1491
1399 1401 1403 1405 1407 1410 1411 1414 1416 1418 1420 1423 1425 1427 1429 1431 1433 1434 1436 1438 1440 1442 1444 1446 1448 1450 1452 1453 1455 1456 1458 1459 1460 1462 1463 1465 1466 1467 1468 1469 1470 1472 1473 1474 1475 1476 1477 1478 1479 1480 1481 1481 1482 1483 1483 1484 1485 1485 1486 1486 1487 1487 1488 1489 1490 1490 1490 1491 1491
1397 1399 1401 1404 1406 1408 1410 1413 1415 1417 1420 1422 1424 1426 1429 1430 1432 1434 1435 1437 1440 1441 1444 1445 1448 1450 1451 1453 1455 1456 1457 1459 1460 1461 1463 1464 1465 1466 1467 1469 1470 1472 1473 1474 1475 1476 1477 1478 1479 1480 1480 1481 1481 1482 1483 1484 1484 1485 1485 1486 1487 1487 1488 1489 1490 1490 1490 1491 1491
1396 1398 1400 1402 1405 1407 1409 1411 1414 1416 1419 1421 1423 1425 1427 1430 1431 1433 1435 1437 1439 1440 1443 1445 1447 1449 1450 1452 1454 1455 1457 1458 1460 1461 1463 1464 1465 1466 1467 1468 1470 1471 1473 1474 1475 1476 1477 1478 1479 1480 1480 1480 1481 1482 1482 1483 1484 1485 1485 1486 1487 1487 1488 1489 1490 1490 1490 1490 1490
1395 1397 1399 1401 1403 1406 1408 1410 1413 1415 1418 1420 1423 1425 1426 1428 1430 1432 1435 1436 1438 1440 1442 1444 1446 1448 1450 1452 1453 1455 1457 1458 1460 1461 1462 1464 1465 1466 1467 1468 1470 1471 1472 1474 1475 1476 1477 1478 1479 1479 1480 1480 1481 1481 1482 1483 1483 1484 1485 1486 1487 1488 1488 1489 1490 1490 1490 1490 1490
1394 1396 1398 1400 1402 1405 1407 1410 1412 1415 1417 1420 1422 1424 1426 1428 1430 1432 1434 1436 1438 1440 1441 1443 1445 1448 1450 1451 1453 1455 1457 1458 1460 1461 1463 1464 1465 1466 1467 1468 1469 1471 1472 1474 1475 1476 1477 1477 1478 1479 1479 1480 1480 1481 1482 1482 1483 1484 1485 1486 1487 1488 1488 1489 1489 1490 1490 1490 1490
1394 1396 1398 1400 1402 1404 1407 1409 1411 1414 1416 1419 1421 1423 1425 1427 1430 1432 1434 1436 1438 1440 1441 1443 1445 1447 1449 1451 1453 1455 1456 1458 1460 1462 1463 1464 1465 1466 1467 1468 1469 1470 1472 1473 1475 1475 1476 1477 1478 1479 1479 1480 1480 1481 1482 1482 1483 1484 1485 1486 1487 1488 1488 1489 1489 1489 1489 1489 1489
1394 1395 1398 1400 1402 1404 1406 1409 1411 1413 1416 1418 1420 1423 1425 1427 1430 1432 1434 1435 1438 1440 1441 1443 1445 1447 1449 1451 1453 1454 1456 1458 1460 1461 1463 1464 1465 1467 1468 1469 1470 1470 1472 1473 1474 1475 1476 1477 1478 1478 1479 1479 1480 1481 1482 1482 1483 1484 1485 1486 1487 1487 1488 1488 1488 1489 1489 1489 1489
Wind_Speed
40 40 39 39 38 38 37 37 36 36 35 34 34 33 32 31 30 29 28 26 25 24 23 21 20 19 18 17 16 15 14 14 14 14 14 15 16 16 17 18 20 22 24 25 24 23 22 21 20 20 20 20 20 21 21 20 18 16 15 14 13 13 13 14 14 14 14 14 15
41 41 40 40 39 38 38 37 37 37 36 36 35 34 33 32 31 29 28 27 26 25 23 22 20 19 18 17 16 15 14 14 14 14 14 14 14 14 14 15 16 18 20 22 22 22 22 21 20 19 18 17 17 18 19 20 20 18 15 13 12 13 13 14 15 15 15 15 16
41 41 41 40 39 39 38 38 38 37 37 37 36 35 34 33 31 30 29 28 26 25 24 22 21 20 18 17 16 15 14 14 14 15 15 15 14 13 13 13 13 14 16 17 18 18 18 18 19 19 18 17 16 17 18 20 20 19 16 13 13 13 14 15 16 16 17 17 19
41 41 41 41 40 40 39 39 38 38 37 37 36 35 34 33 32 30 29 28 26 26 25 23 22 20 18 17 16 15 14 14 14 14 15 14 14 13 13 12 12 13 13 13 13 13 14 15 16 17 17 16 16 16 16 16 16 16 14 13 14 15 15 16 17 18 18 19 20
42 42 42 42 41 41 40 40 39 38 37 37 36 35 34 33 32 31 29 29 28 27 25 24 22 20 18 16 15 14 14 14 14 14 14 14 14 13 12 12 12 12 12 11 10 10 10 11 13 13 13 12 11 11 10 9 10 10 12 13 14 15 16 17 18 19 20 21 20
42 42 42 42 42 41 40 39 39 38 37 36 35 34 34 33 32 31 30 29 29 27 25 24 22 20 18 16 15 14 13 13 13 13 14 14 14 13 13 13 12 12 11 10 9 8 9 10 9 9 8 8 8 8 8 7 8 9 10 12 13 14 15 17 18 19 20 20 19
43 43 42 42 42 41 40 39 39 38 37 36 35 35 34 33 32 31 31 30 28 27 26 24 23 21 19 16 15 13 12 12 12 12 13 13 13 13 13 13 13 12 12 10 9 9 9 9 8 8 8 8 9 9 9 9 8 8 10 11 11 12 14 16 18 18 18 18 17
43 43 42 42 42 41 40 40 39 38 37 37 36 35 34 33 32 31 31 30 29 28 26 25 23 21 19 16 14 13 11 11 11 11 12 13 13 13 13 13 13 13 12 11 10 10 10 9 8 8 9 10 12 12 12 10 9 8 9 10 10 11 13 16 17 17 17 16 15
42 42 42 42 41 41 40 40 39 38 38 37 37 35 34 33 32 31 31 30 29 28 26 25 23 21 18 16 14 12 11 10 10 10 11 12 12 12 12 12 13 13 13 12 11 11 11 10 10 11 12 15 16 17 16 14 11 9 8 8 8 10 12 15 16 17 16 15 14
43 43 42 42 41 41 40 39 39 38 38 37 36 35 34 33 32 31 30 30 29 27 26 24 22 20 18 16 14 12 10 10 9 10 10 11 11 11 11 11 12 13 13 12 12 11 11 11 12 13 14 15 16 18 18 16 13 12 11 11 11 12 14 15 16 16 15 14 13
43 43 42 41 41 41 40 39 38 38 38 37 36 35 34 33 32 31 30 29 28 27 25 23 21 19 17 15 13 11 10 10 9 10 10 10 10 10 10 10 11 12 12 12 12 10 10 10 10 11 11 11 12 14 14 14 14 15 15 15 16 16 16 16 16 15 15 13 13
43 42 42 41 41 40 39 39 38 38 37 37 36 35 35 34 33 31 30 29 28 27 25 22 20 17 15 13 12 11 10 9 9 10 10 10 10 9 10 10 11 11 11 11 11 10 9 10 10 10 9 7 7 8 9 12 15 17 18 19 18 16 15 15 15 15 14 13 13
43 42 41 40 40 39 39 39 38 38 37 37 37 36 35 34 32 31 30 30 28 27 24 22 19 17 14 12 11 10 9 9 10 10 10 10 9 10 10 11 11 11 11 10 10 10 11 12 13 13 11 8 7 7 10 13 16 18 18 17 15 14 13 14 15 15 13 12 12
43 42 41 40 39 39 39 38 38 38 37 37 37 36 35 34 33 32 31 30 29 27 24 22 19 16 14 12 10 9 9 9 10 10 10 10 10 10 11 11 11 11 10 10 11 12 13 15 15 15 14 13 12 12 13 14 15 15 14 12 12 12 13 14 14 12 11 11 11
42 41 41 40 39 39 39 39 38 38 38 38 37 36 34 33 32 32 31 31 29 27 24 22 19 17 14 12 10 9 9 10 10 10 10 11 11 11 11 11 11 11 10 11 12 13 14 15 15 16 17 16 14 13 12 12 10 10 9 10 11 12 12 12 11 10 10 10 11
42 41 41 40 40 39 39 38 38 38 38 38 37 36 34 33 33 32 32 31 29 26 24 22 20 17 15 12 11 10 10 11 11 11 11 11 12 12 12 12 12 12 12 12 14 14 14 14 15 14 13 11 10 9 8 8 7 8 9 10 11 11 10 9 8 9 10 11 12
42 41 41 40 40 40 39 39 38 38 38 38 37 36 35 34 33 33 32 31 29 26 24 22 20 17 15 13 11 11 11 12 12 12 12 12 12 12 12 13 13 13 13 14 14 14 13 13 12 10 8 7 7 7 7 8 8 10 11 11 11 9 8 8 8 10 11 12 12
42 42 41 40 40 40 40 39 39 38 38 37 36 35 35 34 34 33 32 30 28 26 23 21 19 17 15 13 12 12 12 13 13 13 12 12 12 12 13 13 13 14 14 15 14 13 12 11 9 8 8 8 8 9 9 9 11 12 12 10 9 7 7 8 10 11 11 12 12
43 42 42 41 40 40 40 39 39 39 38 36 35 34 34 34 33 33 31 30 28 25 23 21 19 17 15 13 12 13 13 14 13 13 13 13 12 13 13 13 14 14 15 15 13 12 10 8 8 9 10 10 10 10 11 12 12 12 11 9 8 8 9 9 10 10 11 11 11
43 43 42 42 41 40 40 39 39 38 37 35 34 33 33 33 33 32 31 29 27 25 22 21 19 17 15 13 13 13 14 14 14 14 14 13 13 14 14 14 14 15 16 15 13 10 9 9 10 11 11 11 11 12 12 13 12 11 9 8 8 9 9 10 10 10 10 10 10
42 42 42 42 41 40 40 39 38 36 35 34 33 33 33 32 32 31 30 28 26 24 22 20 18 16 14 13 14 15 15 15 15 15 14 14 14 14 14 14 14 15 16 16 13 11 11 12 12 11 11 12 12 13 13 12 11 9 9 9 9 9 9 9 10 10 10 9 9
42 41 40 40 40 39 38 38 36 35 33 33 32 32 32 32 31 30 28 26 25 23 22 20 17 15 14 14 15 16 17 17 16 16 15 15 15 14 14 14 14 15 16 17 16 15 14 13 12 12 12 13 13 12 11 10 9 9 9 9 9 9 9 9 9 9 9 9 9
43 41 40 39 38 38 37 36 35 34 33 32 32 32 31 31 30 28 26 25 23 22 21 19 17 15 14 15 16 17 18 18 17 17 16 15 15 15 14 14 14 15 17 18 18 18 16 14 13 13 13 12 11 10 9 9 10 10 9 9 9 9 9 8 9 9 9 8 8
42 40 38 37 36 36 35 35 34 33 33 32 32 32 31 30 28 27 25 23 22 21 20 18 16 15 15 16 17 18 18 18 18 17 16 16 15 15 15 15 15 16 17 19 19 18 16 14 15 14 13 11 10 9 10 10 10 9 9 8 8 8 8 8 8 8 8 7 6
40 38 37 36 36 35 35 34 34 34 33 32 32 31 31 29 28 26 24 22 21 20 19 18 17 17 17 18 18 19 19 18 18 17 16 16 16 15 15 15 16 17 18 19 18 16 14 14 14 13 12 11 10 10 10 10 9 8 8 7 7 7 8 8 7 7 5 4 3
39 37 36 36 36 35 35 35 35 34 34 33 32 31 30 29 27 25 23 22 20 20 19 18 18 18 19 19 19 19 19 18 17 16 16 16 16 16 16 16 17 18 18 17 16 14 13 12 12 12 12 11 10 10 9 9 8 8 7 7 7 6 6 6 5 4 2 1 1
38 37 36 36 36 35 35 35 35 34 34 33 33 32 30 29 27 25 23 21 20 20 19 18 18 19 20 20 20 20 20 18 17 16 16 17 17 17 17 17 17 17 17 16 15 13 12 11 12 11 11 10 9 8 8 8 8 7 7 6 6 5 4 3 2 1 1 2 2
38 37 37 36 36 36 36 35 35 35 35 34 33 32 30 29 27 25 23 22 21 20 19 19 20 20 21 22 21 21 20 19 18 17 17 17 17 18 18 17 17 16 15 15 14 14 13 13 12 11 9 8 8 8 8 8 7 6 5 5 4 3 2 1 2 2 3 3 3
39 38 37 37 36 36 36 36 36 35 35 34 33 32 30 29 27 25 23 22 21 21 20 20 21 22 23 23 22 21 20 19 18 18 18 18 18 18 17 16 16 16 16 16 15 15 14 13 12 10 9 8 7 8 8 7 6 5 4 3 2 2 2 3 3 4 4 4 4
39 38 38 38 37 37 37 36 36 35 35 34 33 32 30 29 27 25 24 23 22 21 21 21 22 23 24 23 22 21 20 19 19 19 19 18 18 17 16 16 17 17 17 17 16 15 14 13 11 10 9 8 8 8 7 6 5 4 3 2 2 3 4 5 5 5 5 4 3
39 38 38 38 38 37 37 36 36 35 34 34 33 32 30 29 27 25 24 23 22 21 21 22 23 24 24 23 22 22 21 20 20 19 19 18 17 17 17 18 19 19 19 18 16 15 13 12 10 9 8 8 8 7 6 5 4 3 3 3 4 5 6 6 6 6 5 4 3
39 39 39 38 38 38 37 36 36 35 34 34 33 32 30 28 27 25 24 23 22 22 22 24 25 25 24 23 23 22 21 20 20 20 19 18 18 18 19 20 20 20 19 17 15 14 12 11 10 9 8 8 7 6 5 4 3 4 4 5 6 7 7 7 6 5 4 3 2
39 39 39 39 38 38 37 36 36 35 34 33 32 31 30 28 26 25 24 23 23 23 24 25 25 25 25 24 23 22 22 21 21 20 19 19 19 20 21 21 21 20 18 16 14 13 12 11 10 9 8 7 6 5 4 4 4 5 7 7 8 8 8 7 6 5 4 3 2
39 39 39 39 39 38 37 36 36 35 34 33 32 31 29 28 27 26 25 24 23 23 24 25 25 25 24 24 23 23 22 22 22 21 21 21 21 22 22 22 21 19 17 15 14 13 12 11 10 9 8 7 5 5 5 5 6 7 8 9 9 9 8 7 6 4 3 2 1
40 40 39 39 39 38 38 37 36 35 34 33 32 30 29 28 27 26 26 25 24 24 25 26 25 25 24 24 23 23 23 23 23 23 22 22 23 23 23 21 20 18 16 15 14 13 12 11 10 9 7 6 5 5 6 8 9 9 10 10 9 8 8 6 5 4 3 2 1
40 40 40 40 39 39 38 37 36 35 34 33 31 30 29 28 27 27 26 25 25 26 26 27 26 26 25 24 23 23 23 24 24 24 23 23 24 24 23 20 19 18 17 16 15 14 13 12 10 8 6 6 6 7 8 10 11 11 10 10 9 8 7 6 4 3 2 1 1
41 40 40 40 39 39 38 37 36 35 34 33 31 31 30 29 28 27 26 26 26 27 27 28 28 27 26 24 23 23 23 24 24 23 23 24 24 23 21 19 19 19 18 16 15 14 13 11 9 7 6 6 7 9 10 11 12 11 11 10 8 7 6 5 4 3 2 1 1
41 40 40 40 40 39 38 37 36 35 34 33 32 31 30 30 29 28 27 26 26 27 28 28 28 27 26 24 23 23 24 24 22 22 23 24 24 22 19 18 19 19 18 17 16 15 12 10 7 6 6 7 9 10 12 12 12 11 10 9 8 7 6 5 4 2 1 1 1
41 40 40 40 39 39 38 37 36 35 34 33 32 31 31 30 29 28 27 26 26 27 28 29 29 27 25 23 23 24 24 23 21 21 22 23 22 20 17 17 18 19 18 17 16 14 11 8 7 7 8 9 10 11 12 12 11 11 10 9 7 6 5 4 3 2 1 1 2
40 40 40 39 39 39 38 37 36 35 34 33 32 32 31 30 29 28 27 27 27 27 28 29 28 26 24 23 24 24 24 23 23 22 22 21 20 18 16 16 17 18 18 17 15 12 10 8 7 8 10 11 12 12 11 11 10 10 9 8 7 6 5 3 2 1 1 2 3
40 40 39 39 38 38 38 37 36 35 33 32 32 32 31 30 29 28 28 29 29 28 28 28 26 24 23 24 25 25 25 25 25 24 22 20 19 17 16 15 16 17 17 16 14 11 9 9 9 10 12 12 12 12 11 10 10 9 8 7 6 5 4 3 2 1 1 2 3
Wind_Direction
225 227 229 231 232 234 235 237 239 241 242 243 244 245 246 247 248 250 251 253 255 256 258 260 262 263 265 267 270 273 275 273 271 266 260 256 254 253 252 251 250 250 252 255 258 260 260 260 259 259 258 258 258 256 251 247 248 252 257 260 260 259 259 259 258 259 260 263 266
225 227 229 231 233 234 236 237 239 241 242 244 245 246 247 249 250 251 253 255 257 258 260 260 261 262 263 266 269 271 273 273 272 270 267 263 261 259 256 253 251 250 251 254 257 258 259 259 259 259 259 258 258 258 254 248 244 244 247 253 258 261 261 261 258 257 257 260 262
225 227 229 231 232 234 235 236 238 240 241 243 245 246 247 249 250 252 254 257 258 259 260 260 261 262 264 266 267 269 270 270 270 270 269 266 264 261 259 256 253 252 253 254 256 257 258 258 258 259 260 260 258 259 257 251 244 240 241 248 255 259 260 259 256 255 257 260 264
224 226 228 230 231 233 235 237 238 240 241 242 243 245 246 249 251 253 255 257 258 259 260 261 261 263 264 265 266 266 267 267 267 267 267 267 264 261 259 258 255 254 255 256 257 257 257 258 259 261 261 261 257 256 256 252 244 240 241 248 253 256 257 256 255 256 260 266 271
224 226 228 230 232 234 236 238 239 240 241 242 243 244 246 248 250 253 254 256 258 259 260 261 262 263 265 266 266 265 264 263 263 263 264 264 263 260 258 256 254 254 256 258 259 258 258 259 260 260 257 252 245 242 242 241 236 235 239 245 249 252 253 254 256 261 267 274 278
224 226 228 230 232 234 235 237 238 240 241 242 242 243 245 248 250 252 254 256 258 260 261 262 262 264 265 266 266 264 262 260 259 259 259 260 258 256 254 252 251 251 253 256 258 257 255 253 249 243 233 223 215 210 209 212 217 225 234 242 247 250 253 258 264 270 276 281 282
225 226 228 230 232 233 234 235 237 239 241 242 243 244 246 248 250 253 255 257 258 259 260 261 263 264 265 266 266 264 262 259 256 255 255 255 253 251 250 249 248 248 249 251 252 250 245 238 231 226 220 211 206 201 197 199 208 223 237 246 251 257 264 269 273 277 281 283 283
226 227 228 229 231 232 233 234 236 238 239 241 243 245 246 248 251 253 255 257 257 258 260 262 263 265 267 268 267 265 262 258 255 252 250 249 247 246 245 244 244 244 245 246 247 243 236 229 223 226 235 240 235 224 212 207 212 227 242 252 258 265 273 278 281 281 282 282 283
224 226 227 229 230 231 233 234 235 237 239 241 243 245 246 248 250 252 254 256 258 259 261 262 264 267 268 268 267 265 261 256 253 249 245 244 242 240 239 239 239 240 240 242 241 239 236 236 240 248 255 258 256 249 239 229 224 225 229 237 247 259 269 277 281 281 281 281 285
223 225 226 227 228 230 232 233 235 237 239 241 243 244 245 247 249 252 253 256 258 259 260 262 264 266 267 267 266 262 258 253 249 245 241 238 236 234 233 233 234 235 236 237 236 236 240 250 257 257 255 255 259 258 252 241 229 219 215 218 232 249 263 272 276 277 277 281 287
224 225 225 226 227 229 230 231 233 235 237 239 241 243 244 246 249 250 252 254 255 257 259 261 263 265 266 266 264 260 254 249 244 239 236 233 230 227 226 228 230 232 233 233 231 233 241 251 249 242 239 247 259 262 255 239 226 220 221 227 239 252 263 269 272 272 274 280 285
224 225 225 226 226 227 228 229 231 233 235 237 240 242 243 245 247 249 250 252 253 255 257 260 261 263 264 264 261 256 250 244 238 234 230 226 221 218 219 223 227 229 228 227 226 229 232 229 218 211 211 227 253 259 246 231 226 228 234 241 249 256 263 266 267 268 271 276 282
224 225 225 225 226 226 227 228 230 232 234 236 238 240 242 244 246 248 249 251 252 253 255 257 259 260 260 259 256 250 243 237 233 229 224 218 211 211 214 220 223 224 223 221 220 221 219 212 205 203 206 215 226 233 233 233 235 240 244 248 252 256 260 262 263 266 269 275 282
224 224 224 224 225 225 226 228 229 231 233 235 238 239 241 243 245 247 249 250 251 251 252 254 255 255 255 253 249 243 235 231 227 224 218 211 207 210 214 217 218 218 217 216 215 214 212 210 211 218 228 234 233 232 236 240 244 247 249 250 251 255 258 260 264 269 275 280 285
223 223 223 224 224 225 226 227 229 231 232 235 237 238 239 241 243 246 248 248 249 249 250 251 251 251 250 247 242 234 227 223 221 218 213 208 208 212 215 214 211 211 211 211 210 209 211 217 229 242 248 245 237 233 236 242 246 247 249 250 252 255 258 262 269 276 280 282 283
222 222 223 223 223 225 226 227 228 230 232 234 236 237 238 239 242 244 246 246 246 247 247 248 248 247 245 241 234 226 220 217 215 213 210 209 211 213 213 209 204 203 205 206 204 207 217 233 246 252 250 238 226 221 224 231 238 244 248 250 253 255 260 267 274 277 278 279 281
221 221 221 222 223 225 226 227 227 229 231 233 235 236 237 239 241 243 244 244 244 244 244 245 245 243 240 236 229 221 215 212 210 209 210 212 213 213 210 206 202 201 202 202 201 210 226 243 248 241 223 207 201 203 210 222 235 244 248 250 252 256 263 270 273 274 276 279 282
220 220 221 221 223 224 226 227 228 229 231 233 234 235 237 239 240 242 243 243 242 243 243 243 243 241 237 232 225 218 213 210 208 208 210 212 212 210 207 205 202 201 200 199 203 218 234 241 230 210 197 195 197 203 213 225 237 244 247 248 251 256 262 266 270 273 276 280 283
220 220 221 222 223 225 226 227 228 229 230 230 231 233 235 237 239 241 241 241 242 242 242 241 240 238 233 227 221 215 211 208 207 207 208 209 208 206 205 203 202 202 200 199 208 224 234 226 208 198 196 196 199 207 218 230 239 242 243 244 247 252 258 263 268 272 275 278 280
219 220 221 223 224 226 226 226 227 228 228 227 228 230 233 236 238 239 239 239 240 241 241 240 238 234 229 222 216 211 208 205 204 205 205 205 204 203 204 203 202 201 200 200 209 219 220 205 199 197 196 197 203 215 226 235 238 238 237 237 241 247 254 260 265 269 273 275 278
218 219 221 223 224 225 225 225 225 225 224 224 226 228 232 234 236 237 238 239 239 240 239 238 236 231 225 217 211 207 204 202 201 201 202 202 202 203 203 202 201 200 200 199 203 204 200 195 194 197 202 208 216 224 231 234 233 230 229 231 236 244 251 258 263 267 271 275 280
219 220 220 222 222 222 222 223 222 221 221 222 224 227 230 232 234 235 236 236 237 238 237 236 233 228 221 214 208 205 201 199 198 198 200 201 201 202 201 199 198 198 198 197 195 192 190 190 197 207 218 223 226 227 228 226 222 221 223 228 235 243 250 256 262 267 272 277 284
221 220 219 219 219 219 219 219 219 219 219 220 222 225 228 230 232 232 233 233 234 234 234 232 228 222 216 210 206 202 199 197 196 197 198 200 200 200 198 196 196 197 197 194 189 185 186 195 208 219 226 229 226 220 214 212 212 215 220 228 237 245 252 258 263 269 276 283 288
220 218 217 216 215 216 216 216 216 217 218 219 221 224 226 228 229 229 229 229 230 230 229 226 222 216 211 207 203 199 197 196 196 197 197 198 197 196 193 192 193 195 195 193 188 186 191 207 218 222 222 220 214 206 202 203 207 213 221 229 238 247 253 261 268 275 282 288 291
216 214 213 212 213 213 214 214 215 215 216 218 220 222 224 225 226 226 226 226 226 225 223 220 216 211 207 202 198 195 195 196 198 199 197 195 193 191 189 189 191 192 193 192 191 194 205 217 218 214 210 208 204 201 201 204 209 216 225 233 241 249 258 265 273 280 285 288 289
213 212 211 210 211 211 212 212 214 215 215 217 219 220 222 223 223 223 222 222 221 219 217 214 211 208 203 198 193 191 192 195 199 199 197 192 189 187 187 188 189 190 192 194 198 206 213 214 206 200 198 200 202 204 205 208 214 221 229 238 247 256 264 269 274 278 276 259 210
211 209 209 209 210 210 211 212 213 213 215 216 217 219 220 220 220 219 218 217 216 214 212 210 208 204 199 193 189 188 190 193 196 197 195 190 186 185 185 186 187 190 193 198 202 203 200 194 188 187 190 196 201 205 209 212 218 224 233 243 253 261 265 266 261 235 189 167 156
210 208 207 207 208 209 210 211 211 212 214 215 216 217 218 218 217 216 214 213 212 210 207 205 204 200 194 189 187 188 190 192 193 193 191 188 186 184 183 184 187 192 196 197 193 187 183 180 179 180 184 189 195 202 209 214 220 228 238 247 253 253 244 215 180 164 156 149 141
209 208 207 206 207 208 209 210 210 211 213 214 214 215 215 214 214 213 211 210 209 206 203 201 199 195 190 186 186 187 189 191 191 190 189 188 185 183 183 186 191 194 192 186 180 177 176 174 173 174 177 185 194 202 209 214 223 233 239 239 228 195 166 155 152 147 141 134 127
207 207 206 206 206 207 208 209 210 210 211 212 212 212 212 211 211 210 209 208 206 204 201 198 195 191 187 185 185 187 189 190 190 190 188 187 185 185 188 193 192 187 181 176 175 174 173 171 169 171 177 188 199 206 212 219 228 232 223 197 168 154 148 146 143 137 131 126 126
206 206 205 205 205 206 207 208 208 209 209 210 210 210 210 209 208 208 207 206 204 201 198 196 193 189 186 185 186 187 188 189 189 189 188 187 187 191 194 193 185 177 174 173 174 173 170 168 169 176 186 196 204 212 219 226 226 210 181 160 151 147 144 141 135 131 129 131 140
205 204 204 204 204 205 205 206 206 207 208 208 208 208 207 207 206 206 205 204 201 198 195 194 190 187 184 185 186 187 187 187 187 187 188 189 192 194 192 185 176 172 171 173 173 171 169 170 176 186 196 204 211 218 224 221 204 179 162 153 149 145 141 138 134 134 136 144 162
203 203 203 203 203 203 204 204 205 205 206 206 206 206 205 205 204 203 202 201 198 196 194 191 188 185 184 185 185 186 185 186 186 187 189 193 196 193 185 176 171 170 171 172 172 170 171 176 185 194 202 208 214 219 216 202 181 166 156 151 147 144 142 140 140 142 149 160 185
202 202 202 202 202 202 203 203 204 204 204 204 204 204 203 203 202 201 200 198 196 194 192 190 187 185 185 186 185 184 184 185 186 189 193 196 195 188 179 172 169 169 170 171 171 172 176 184 192 198 203 208 212 209 196 179 166 157 151 148 145 143 143 144 146 150 158 174 206
202 201 200 200 201 202 202 203 203 202 202 202 202 202 202 202 201 200 198 195 193 191 190 187 185 184 185 186 186 185 185 186 189 192 194 194 189 182 176 171 169 168 168 170 171 175 182 189 194 198 201 204 202 192 178 165 156 151 146 144 143 142 144 147 150 155 166 187 233
201 201 200 200 201 201 202 202 201 201 200 200 199 199 200 200 200 199 196 193 190 189 187 184 183 184 185 185 186 187 189 191 193 193 192 188 184 178 174 170 167 167 167 169 173 179 186 191 194 197 199 199 190 178 166 158 152 147 144 143 141 143 146 151 156 165 180 210 273
201 201 200 200 200 200 201 201 200 199 198 198 198 198 198 198 198 197 194 191 188 186 184 183 183 184 184 185 186 189 193 196 195 190 186 183 180 177 173 169 167 166 167 171 177 184 189 191 193 196 196 190 178 168 160 154 149 146 143 143 142 145 149 156 165 178 196 234 317
201 201 201 200 199 199 199 199 199 197 196 196 196 197 197 197 196 194 192 189 187 185 183 182 183 184 184 186 188 192 195 196 192 185 181 180 179 178 175 171 168 167 169 175 183 189 191 191 193 194 189 178 168 160 155 151 148 146 145 144 145 149 156 164 175 190 207 270 360
200 200 201 200 199 198 198 197 197 196 195 194 195 195 196 196 194 192 190 188 186 184 182 182 182 183 184 186 190 192 192 189 185 181 179 179 179 180 179 176 173 171 174 180 186 190 191 191 191 186 176 165 158 154 151 149 147 146 146 147 151 156 163 173 184 195 209 19 30
199 199 200 200 199 198 197 196 195 195 195 194 194 194 195 194 192 189 188 187 185 183 182 181 181 181 184 188 191 189 185 180 178 178 177 177 178 181 184 184 181 179 181 184 187 188 189 190 185 176 165 157 152 150 148 146 146 147 149 153 159 167 174 180 189 181 79 46 41
198 198 198 198 198 198 196 195 194 194 194 194 194 194 193 192 189 187 186 185 184 183 182 181 180 181 185 190 190 185 179 176 175 175 175 175 176 180 186 190 189 187 185 185 184 185 185 183 175 165 158 152 148 146 146 146 148 150 153 159 167 177 184 186 177 127 68 46 40